83.3°F
Current conditions from King Hill
Updated every 5 minutes
 
  Monday September 1, 2014

Station Historical Data
Daily Summary for November 18, 2011 Units:  English    Metric   Both
« Previous Day
Next Day »
Daily Weekly Monthly Yearly Custom
  High: Low: Average:
Temperature: 39.0 °F 27.5 °F 33.1 °F
Dew Point: 24.9 °F 19.3 °F 21.9 °F
Humidity: 74% 48% 64%
Wind Speed: 11.0mph 1.0mph 4.9mph
Wind Gust: 18.0mph - -
Wind- - WSW
Pressure: 30.24 in 29.85 in -
Precipitation: 0.00 in    
Historical Graphs
 
 
Tabular Data for November 18, 2011
Time Temperature Dew Point Pressure Wind Wind Speed Wind Gust Humidity Daily Rainfall
00:04 30.3 °F 22.7 °F 29.86 in SW 2.0 mph 7.0 mph 73% 0.00 in
00:09 30.2 °F 22.6 °F 29.85 in WSW 3.0 mph 9.0 mph 73% 0.00 in
00:14 30.1 °F 22.5 °F 29.86 in WSW 2.0 mph 9.0 mph 73% 0.00 in
00:19 30.1 °F 22.8 °F 29.86 in Calm   7.0 mph 74% 0.00 in
00:24 30.1 °F 22.8 °F 29.86 in WSW 2.0 mph 7.0 mph 74% 0.00 in
00:29 30.2 °F 22.9 °F 29.86 in WSW 3.0 mph 6.0 mph 74% 0.00 in
00:34 30.2 °F 22.9 °F 29.86 in WSW 3.0 mph 6.0 mph 74% 0.00 in
00:39 30.1 °F 22.8 °F 29.86 in WSW 4.0 mph 9.0 mph 74% 0.00 in
00:44 30.3 °F 23.0 °F 29.86 in West 4.0 mph 10.0 mph 74% 0.00 in
00:49 30.2 °F 22.9 °F 29.86 in WSW 5.0 mph 10.0 mph 74% 0.00 in
00:54 30.2 °F 22.9 °F 29.86 in SW 5.0 mph 11.0 mph 74% 0.00 in
00:59 30.2 °F 22.9 °F 29.86 in WSW 4.0 mph 11.0 mph 74% 0.00 in
01:04 30.2 °F 22.9 °F 29.86 in West 5.0 mph 10.0 mph 74% 0.00 in
01:09 30.2 °F 22.6 °F 29.87 in West 6.0 mph 11.0 mph 73% 0.00 in
01:14 30.3 °F 22.7 °F 29.87 in West 6.0 mph 11.0 mph 73% 0.00 in
01:19 30.4 °F 22.8 °F 29.87 in West 4.0 mph 11.0 mph 73% 0.00 in
01:24 30.5 °F 22.9 °F 29.88 in West 5.0 mph 11.0 mph 73% 0.00 in
01:29 30.4 °F 22.8 °F 29.88 in West 6.0 mph 13.0 mph 73% 0.00 in
01:34 30.5 °F 22.9 °F 29.88 in WSW 6.0 mph 14.0 mph 73% 0.00 in
01:39 30.6 °F 23.0 °F 29.88 in West 6.0 mph 14.0 mph 73% 0.00 in
01:44 30.5 °F 22.9 °F 29.89 in West 6.0 mph 12.0 mph 73% 0.00 in
01:49 30.3 °F 22.7 °F 29.89 in West 8.0 mph 13.0 mph 73% 0.00 in
01:54 30.2 °F 22.9 °F 29.89 in WSW 7.0 mph 13.0 mph 74% 0.00 in
01:59 30.3 °F 22.7 °F 29.89 in WSW 7.0 mph 12.0 mph 73% 0.00 in
02:04 30.3 °F 22.7 °F 29.90 in WSW 6.0 mph 12.0 mph 73% 0.00 in
02:09 30.3 °F 22.7 °F 29.90 in WSW 5.0 mph 13.0 mph 73% 0.00 in
02:14 30.2 °F 22.6 °F 29.91 in WSW 3.0 mph 13.0 mph 73% 0.00 in
02:19 30.1 °F 22.8 °F 29.91 in WSW 5.0 mph 10.0 mph 74% 0.00 in
02:24 30.1 °F 22.8 °F 29.91 in WSW 3.0 mph 10.0 mph 74% 0.00 in
02:29 30.1 °F 22.8 °F 29.91 in West 3.0 mph 9.0 mph 74% 0.00 in
02:34 29.8 °F 22.5 °F 29.92 in WSW 2.0 mph 8.0 mph 74% 0.00 in
02:39 29.7 °F 22.4 °F 29.92 in WSW 4.0 mph 9.0 mph 74% 0.00 in
02:44 29.7 °F 22.4 °F 29.92 in WSW 5.0 mph 9.0 mph 74% 0.00 in
02:49 29.8 °F 22.5 °F 29.92 in West 6.0 mph 10.0 mph 74% 0.00 in
02:54 29.8 °F 22.5 °F 29.92 in West 5.0 mph 10.0 mph 74% 0.00 in
02:59 29.8 °F 22.2 °F 29.93 in West 7.0 mph 11.0 mph 73% 0.00 in
03:04 30.1 °F 22.5 °F 29.93 in WSW 4.0 mph 11.0 mph 73% 0.00 in
03:09 30.3 °F 22.4 °F 29.93 in West 4.0 mph 13.0 mph 72% 0.00 in
03:14 30.5 °F 22.6 °F 29.93 in WSW 5.0 mph 13.0 mph 72% 0.00 in
03:19 30.6 °F 22.7 °F 29.94 in WSW 6.0 mph 9.0 mph 72% 0.00 in
03:24 30.8 °F 22.5 °F 29.94 in WSW 6.0 mph 11.0 mph 71% 0.00 in
03:29 30.9 °F 22.6 °F 29.94 in West 5.0 mph 11.0 mph 71% 0.00 in
03:34 30.8 °F 22.5 °F 29.94 in West 5.0 mph 10.0 mph 71% 0.00 in
03:39 30.7 °F 22.4 °F 29.94 in West 3.0 mph 10.0 mph 71% 0.00 in
03:44 30.6 °F 22.3 °F 29.95 in West 4.0 mph 10.0 mph 71% 0.00 in
03:49 30.7 °F 22.7 °F 29.95 in WSW 5.0 mph 10.0 mph 72% 0.00 in
03:54 30.8 °F 22.5 °F 29.95 in WSW 6.0 mph 12.0 mph 71% 0.00 in
03:59 30.8 °F 22.5 °F 29.96 in WSW 5.0 mph 12.0 mph 71% 0.00 in
04:04 30.8 °F 22.5 °F 29.96 in WSW 7.0 mph 13.0 mph 71% 0.00 in
04:09 30.8 °F 22.5 °F 29.97 in West 5.0 mph 13.0 mph 71% 0.00 in
04:14 30.9 °F 22.6 °F 29.97 in West 7.0 mph 18.0 mph 71% 0.00 in
04:19 31.1 °F 22.8 °F 29.98 in West 7.0 mph 18.0 mph 71% 0.00 in
04:24 31.1 °F 22.8 °F 29.98 in SW 4.0 mph 14.0 mph 71% 0.00 in
04:29 31.2 °F 22.9 °F 29.98 in WSW 4.0 mph 13.0 mph 71% 0.00 in
04:34 31.2 °F 22.9 °F 29.99 in WNW 6.0 mph 12.0 mph 71% 0.00 in
04:39 31.2 °F 22.9 °F 29.99 in West 5.0 mph 10.0 mph 71% 0.00 in
04:44 31.1 °F 22.8 °F 29.99 in West 3.0 mph 10.0 mph 71% 0.00 in
04:49 31.1 °F 22.8 °F 29.99 in Calm   9.0 mph 71% 0.00 in
04:54 31.0 °F 23.0 °F 30.00 in WSW 2.0 mph 9.0 mph 72% 0.00 in
04:59 31.0 °F 23.0 °F 30.00 in West 4.0 mph 8.0 mph 72% 0.00 in
05:04 31.0 °F 23.0 °F 30.01 in West 3.0 mph 8.0 mph 72% 0.00 in
05:09 30.9 °F 22.9 °F 30.01 in WNW 4.0 mph 9.0 mph 72% 0.00 in
05:14 30.7 °F 23.1 °F 30.01 in WNW 6.0 mph 9.0 mph 73% 0.00 in
05:19 30.6 °F 22.7 °F 30.01 in WNW 7.0 mph 16.0 mph 72% 0.00 in
05:24 30.5 °F 22.2 °F 30.02 in WNW 8.0 mph 16.0 mph 71% 0.00 in
05:29 30.4 °F 22.1 °F 30.02 in West 5.0 mph 15.0 mph 71% 0.00 in
05:39 30.1 °F 21.8 °F 30.03 in WNW 8.0 mph 13.0 mph 71% 0.00 in
05:44 30.1 °F 21.5 °F 30.03 in NW 5.0 mph 15.0 mph 70% 0.00 in
05:49 30.0 °F 21.4 °F 30.04 in WNW 6.0 mph 15.0 mph 70% 0.00 in
05:54 29.9 °F 21.3 °F 30.04 in WNW 6.0 mph 13.0 mph 70% 0.00 in
05:59 29.8 °F 21.5 °F 30.05 in NW 4.0 mph 11.0 mph 71% 0.00 in
06:04 29.6 °F 21.4 °F 30.05 in NW 3.0 mph 7.0 mph 71% 0.00 in
06:09 29.4 °F 21.2 °F 30.05 in Calm   6.0 mph 71% 0.00 in
06:14 29.2 °F 21.3 °F 30.06 in Calm   5.0 mph 72% 0.00 in
06:19 28.9 °F 21.3 °F 30.06 in West 2.0 mph 5.0 mph 73% 0.00 in
06:24 28.8 °F 20.9 °F 30.06 in WNW 4.0 mph 7.0 mph 72% 0.00 in
06:29 29.0 °F 20.8 °F 30.07 in WNW 7.0 mph 13.0 mph 71% 0.00 in
06:34 29.1 °F 20.5 °F 30.07 in NW 3.0 mph 13.0 mph 70% 0.00 in
06:39 29.0 °F 20.4 °F 30.07 in Calm   9.0 mph 70% 0.00 in
06:44 28.7 °F 20.2 °F 30.07 in Calm   5.0 mph 70% 0.00 in
06:49 28.4 °F 19.9 °F 30.08 in Calm   5.0 mph 70% 0.00 in
06:54 28.0 °F 19.8 °F 30.08 in Calm   1.0 mph 71% 0.00 in
06:59 27.5 °F 19.7 °F 30.08 in SW 3.0 mph 6.0 mph 72% 0.00 in
07:04 27.6 °F 19.8 °F 30.09 in West 1.0 mph 6.0 mph 72% 0.00 in
07:09 27.6 °F 19.8 °F 30.09 in West 2.0 mph 7.0 mph 72% 0.00 in
07:14 27.8 °F 19.6 °F 30.10 in West 2.0 mph 8.0 mph 71% 0.00 in
07:19 28.2 °F 19.7 °F 30.10 in West 3.0 mph 8.0 mph 70% 0.00 in
07:24 28.3 °F 19.8 °F 30.10 in West 2.0 mph 7.0 mph 70% 0.00 in
07:29 28.4 °F 19.9 °F 30.11 in WSW 2.0 mph 7.0 mph 70% 0.00 in
07:34 28.5 °F 19.6 °F 30.11 in West 2.0 mph 8.0 mph 69% 0.00 in
07:44 28.7 °F 19.8 °F 30.11 in Calm   11.0 mph 69% 0.00 in
07:49 28.4 °F 19.9 °F 30.11 in West 1.0 mph 5.0 mph 70% 0.00 in
07:54 28.3 °F 19.8 °F 30.12 in West 2.0 mph 5.0 mph 70% 0.00 in
07:59 28.3 °F 20.1 °F 30.12 in WNW 2.0 mph 6.0 mph 71% 0.00 in
08:04 28.5 °F 20.3 °F 30.13 in WNW 2.0 mph 8.0 mph 71% 0.00 in
08:09 28.8 °F 20.6 °F 30.13 in WNW 4.0 mph 8.0 mph 71% 0.00 in
08:14 29.2 °F 21.0 °F 30.13 in West 3.0 mph 6.0 mph 71% 0.00 in
08:19 29.5 °F 21.3 °F 30.14 in Calm   6.0 mph 71% 0.00 in
08:24 29.7 °F 21.5 °F 30.14 in West 1.0 mph 4.0 mph 71% 0.00 in
08:29 30.0 °F 21.7 °F 30.14 in SW 2.0 mph 5.0 mph 71% 0.00 in
08:34 30.3 °F 22.0 °F 30.15 in WSW 1.0 mph 5.0 mph 71% 0.00 in
08:39 30.5 °F 21.9 °F 30.15 in West 3.0 mph 6.0 mph 70% 0.00 in
08:44 30.8 °F 22.2 °F 30.15 in WSW 3.0 mph 7.0 mph 70% 0.00 in
08:49 31.2 °F 22.2 °F 30.15 in West 4.0 mph 9.0 mph 69% 0.00 in
08:54 31.4 °F 22.1 °F 30.16 in West 4.0 mph 11.0 mph 68% 0.00 in
08:59 31.5 °F 22.2 °F 30.16 in West 4.0 mph 11.0 mph 68% 0.00 in
09:04 31.5 °F 22.2 °F 30.16 in WSW 2.0 mph 6.0 mph 68% 0.00 in
09:09 31.6 °F 22.3 °F 30.16 in Calm   6.0 mph 68% 0.00 in
09:14 31.8 °F 22.4 °F 30.16 in WSW 2.0 mph 5.0 mph 68% 0.00 in
09:20 32.1 °F 22.7 °F 30.16 in West 2.0 mph 6.0 mph 68% 0.00 in
09:29 32.8 °F 22.7 °F 30.16 in West 4.0 mph 7.0 mph 66% 0.00 in
09:34 32.6 °F 22.5 °F 30.16 in WNW 3.0 mph 7.0 mph 66% 0.00 in
09:39 32.5 °F 22.4 °F 30.17 in WNW 3.0 mph 7.0 mph 66% 0.00 in
09:44 32.6 °F 22.9 °F 30.17 in West 5.0 mph 8.0 mph 67% 0.00 in
09:49 32.6 °F 22.9 °F 30.17 in WSW 5.0 mph 12.0 mph 67% 0.00 in
09:54 32.7 °F 23.0 °F 30.17 in WSW 1.0 mph 12.0 mph 67% 0.00 in
09:59 33.0 °F 22.9 °F 30.17 in West 2.0 mph 7.0 mph 66% 0.00 in
10:04 33.0 °F 23.2 °F 30.17 in WSW 3.0 mph 6.0 mph 67% 0.00 in
10:09 33.2 °F 23.4 °F 30.17 in Calm   6.0 mph 67% 0.00 in
10:14 33.3 °F 23.5 °F 30.17 in WNW 2.0 mph 6.0 mph 67% 0.00 in
10:19 33.8 °F 24.4 °F 30.17 in WSW 5.0 mph 9.0 mph 68% 0.00 in
10:24 33.9 °F 24.5 °F 30.17 in West 4.0 mph 9.0 mph 68% 0.00 in
10:29 34.0 °F 23.8 °F 30.17 in WSW 5.0 mph 10.0 mph 66% 0.00 in
10:34 33.4 °F 24.0 °F 30.17 in WNW 5.0 mph 10.0 mph 68% 0.00 in
10:39 33.1 °F 24.0 °F 30.17 in NW 3.0 mph 8.0 mph 69% 0.00 in
10:44 33.3 °F 24.6 °F 30.17 in West 3.0 mph 8.0 mph 70% 0.00 in
10:49 33.7 °F 24.3 °F 30.17 in WNW 3.0 mph 7.0 mph 68% 0.00 in
10:54 34.4 °F 24.9 °F 30.17 in West 5.0 mph 8.0 mph 68% 0.00 in
10:59 35.3 °F 24.3 °F 30.17 in WSW 8.0 mph 13.0 mph 64% 0.00 in
11:04 35.5 °F 24.2 °F 30.17 in West 7.0 mph 13.0 mph 63% 0.00 in
11:09 36.1 °F 24.3 °F 30.17 in West 7.0 mph 13.0 mph 62% 0.00 in
11:14 36.6 °F 24.8 °F 30.18 in WNW 7.0 mph 12.0 mph 62% 0.00 in
11:19 37.0 °F 24.0 °F 30.18 in WNW 9.0 mph 17.0 mph 59% 0.00 in
11:24 37.1 °F 24.5 °F 30.18 in West 7.0 mph 17.0 mph 60% 0.00 in
11:29 37.1 °F 23.7 °F 30.18 in WNW 7.0 mph 16.0 mph 58% 0.00 in
11:34 36.1 °F 22.7 °F 30.18 in West 10.0 mph 18.0 mph 58% 0.00 in
11:39 35.4 °F 22.9 °F 30.18 in West 7.0 mph 18.0 mph 60% 0.00 in
11:44 35.3 °F 22.8 °F 30.18 in WNW 9.0 mph 16.0 mph 60% 0.00 in
11:49 35.5 °F 23.0 °F 30.18 in West 9.0 mph 16.0 mph 60% 0.00 in
11:54 35.6 °F 23.5 °F 30.18 in WSW 6.0 mph 14.0 mph 61% 0.00 in
11:59 35.5 °F 23.0 °F 30.18 in West 7.0 mph 14.0 mph 60% 0.00 in
12:04 36.2 °F 23.7 °F 30.19 in West 7.0 mph 14.0 mph 60% 0.00 in
12:09 35.9 °F 22.6 °F 30.19 in West 8.0 mph 17.0 mph 58% 0.00 in
12:14 35.6 °F 22.7 °F 30.19 in WNW 7.0 mph 17.0 mph 59% 0.00 in
12:19 35.8 °F 23.3 °F 30.19 in West 6.0 mph 13.0 mph 60% 0.00 in
12:24 35.7 °F 22.4 °F 30.19 in West 8.0 mph 17.0 mph 58% 0.00 in
12:29 35.5 °F 21.8 °F 30.19 in WNW 11.0 mph 17.0 mph 57% 0.00 in
12:34 36.4 °F 23.4 °F 30.19 in WNW 5.0 mph 17.0 mph 59% 0.00 in
12:39 37.0 °F 22.8 °F 30.19 in West 10.0 mph 15.0 mph 56% 0.00 in
12:44 36.7 °F 21.6 °F 30.19 in West 10.0 mph 17.0 mph 54% 0.00 in
12:49 36.4 °F 22.2 °F 30.19 in WSW 5.0 mph 17.0 mph 56% 0.00 in
12:54 36.4 °F 21.8 °F 30.19 in WSW 8.0 mph 13.0 mph 55% 0.00 in
12:59 37.1 °F 23.3 °F 30.19 in WSW 6.0 mph 14.0 mph 57% 0.00 in
13:04 37.8 °F 22.6 °F 30.19 in WSW 7.0 mph 16.0 mph 54% 0.00 in
13:09 37.6 °F 21.6 °F 30.20 in WNW 9.0 mph 16.0 mph 52% 0.00 in
13:14 37.5 °F 21.5 °F 30.19 in West 7.0 mph 16.0 mph 52% 0.00 in
13:19 37.9 °F 21.8 °F 30.20 in WNW 6.0 mph 17.0 mph 52% 0.00 in
13:24 38.3 °F 21.8 °F 30.19 in WSW 7.0 mph 17.0 mph 51% 0.00 in
13:29 38.8 °F 21.7 °F 30.19 in West 8.0 mph 13.0 mph 50% 0.00 in
13:34 39.0 °F 21.9 °F 30.19 in West 6.0 mph 13.0 mph 50% 0.00 in
13:39 38.8 °F 21.3 °F 30.19 in SW 9.0 mph 17.0 mph 49% 0.00 in
13:44 37.8 °F 20.8 °F 30.19 in WNW 6.0 mph 17.0 mph 50% 0.00 in
13:49 37.9 °F 20.9 °F 30.19 in WNW 8.0 mph 15.0 mph 50% 0.00 in
13:54 38.2 °F 20.7 °F 30.19 in West 6.0 mph 15.0 mph 49% 0.00 in
13:59 38.4 °F 20.4 °F 30.19 in West 6.0 mph 15.0 mph 48% 0.00 in
14:04 38.6 °F 20.6 °F 30.19 in West 7.0 mph 12.0 mph 48% 0.00 in
14:09 38.8 °F 20.8 °F 30.18 in WNW 6.0 mph 12.0 mph 48% 0.00 in
14:14 38.4 °F 20.9 °F 30.18 in West 6.0 mph 11.0 mph 49% 0.00 in
14:19 37.4 °F 20.0 °F 30.19 in West 6.0 mph 12.0 mph 49% 0.00 in
14:24 36.7 °F 19.3 °F 30.19 in West 8.0 mph 15.0 mph 49% 0.00 in
14:29 36.4 °F 19.5 °F 30.19 in West 6.0 mph 15.0 mph 50% 0.00 in
14:35 36.4 °F 20.0 °F 30.19 in West 6.0 mph 12.0 mph 51% 0.00 in
14:44 36.6 °F 20.6 °F 30.19 in WSW 5.0 mph 12.0 mph 52% 0.00 in
14:49 36.6 °F 20.6 °F 30.19 in West 4.0 mph 12.0 mph 52% 0.00 in
14:54 36.6 °F 20.6 °F 30.19 in WSW 5.0 mph 9.0 mph 52% 0.00 in
14:59 36.7 °F 20.7 °F 30.20 in WSW 4.0 mph 9.0 mph 52% 0.00 in
15:04 36.8 °F 20.4 °F 30.20 in West 4.0 mph 9.0 mph 51% 0.00 in
15:09 36.9 °F 20.9 °F 30.20 in WNW 3.0 mph 10.0 mph 52% 0.00 in
15:14 36.9 °F 20.5 °F 30.20 in WSW 5.0 mph 10.0 mph 51% 0.00 in
15:19 37.0 °F 20.5 °F 30.20 in WSW 5.0 mph 9.0 mph 51% 0.00 in
15:24 37.5 °F 20.5 °F 30.20 in West 5.0 mph 11.0 mph 50% 0.00 in
15:29 37.5 °F 20.1 °F 30.20 in West 4.0 mph 12.0 mph 49% 0.00 in
15:34 37.2 °F 20.7 °F 30.20 in West 3.0 mph 12.0 mph 51% 0.00 in
15:39 37.0 °F 20.1 °F 30.20 in WSW 5.0 mph 10.0 mph 50% 0.00 in
15:44 36.8 °F 19.9 °F 30.20 in SW 3.0 mph 9.0 mph 50% 0.00 in
15:49 36.6 °F 19.7 °F 30.20 in WSW 3.0 mph 7.0 mph 50% 0.00 in
15:54 36.4 °F 20.0 °F 30.20 in WSW 4.0 mph 8.0 mph 51% 0.00 in
15:59 36.4 °F 20.0 °F 30.20 in WSW 2.0 mph 8.0 mph 51% 0.00 in
16:04 36.3 °F 20.4 °F 30.20 in Calm   6.0 mph 52% 0.00 in
16:09 36.2 °F 20.3 °F 30.20 in Calm   6.0 mph 52% 0.00 in
16:14 36.1 °F 21.1 °F 30.20 in Calm   6.0 mph 54% 0.00 in
16:19 35.9 °F 20.4 °F 30.21 in Calm   4.0 mph 53% 0.00 in
16:24 35.9 °F 20.4 °F 30.21 in Calm   4.0 mph 53% 0.00 in
16:29 35.8 °F 20.8 °F 30.21 in Calm   4.0 mph 54% 0.00 in
16:34 35.7 °F 21.1 °F 30.21 in WSW 1.0 mph 4.0 mph 55% 0.00 in
16:39 35.7 °F 20.7 °F 30.22 in SW 1.0 mph 8.0 mph 54% 0.00 in
16:44 35.9 °F 20.4 °F 30.22 in WSW 6.0 mph 11.0 mph 53% 0.00 in
16:49 36.2 °F 20.3 °F 30.22 in SW 7.0 mph 11.0 mph 52% 0.00 in
16:54 36.5 °F 20.5 °F 30.22 in WSW 6.0 mph 14.0 mph 52% 0.00 in
16:59 36.7 °F 20.3 °F 30.22 in WSW 4.0 mph 14.0 mph 51% 0.00 in
17:04 36.7 °F 20.7 °F 30.23 in WSW 6.0 mph 12.0 mph 52% 0.00 in
17:09 36.8 °F 20.4 °F 30.23 in West 8.0 mph 14.0 mph 51% 0.00 in
17:14 36.8 °F 20.8 °F 30.23 in WSW 8.0 mph 15.0 mph 52% 0.00 in
17:19 36.8 °F 20.8 °F 30.24 in West 6.0 mph 15.0 mph 52% 0.00 in
17:24 37.0 °F 21.0 °F 30.24 in West 4.0 mph 15.0 mph 52% 0.00 in
17:29 36.9 °F 20.9 °F 30.23 in West 5.0 mph 15.0 mph 52% 0.00 in
17:34 36.8 °F 21.3 °F 30.23 in West 5.0 mph 9.0 mph 53% 0.00 in
17:39 36.8 °F 21.3 °F 30.23 in WSW 4.0 mph 8.0 mph 53% 0.00 in
17:44 36.6 °F 21.5 °F 30.23 in WSW 3.0 mph 8.0 mph 54% 0.00 in
17:49 36.4 °F 21.3 °F 30.23 in West 2.0 mph 7.0 mph 54% 0.00 in
17:54 36.2 °F 21.6 °F 30.24 in SW 2.0 mph 7.0 mph 55% 0.00 in
17:59 36.1 °F 21.9 °F 30.24 in West 3.0 mph 11.0 mph 56% 0.00 in
18:04 36.2 °F 22.0 °F 30.24 in WSW 4.0 mph 11.0 mph 56% 0.00 in
18:09 36.1 °F 22.3 °F 30.24 in WSW 7.0 mph 14.0 mph 57% 0.00 in
18:14 35.9 °F 22.6 °F 30.23 in WSW 5.0 mph 14.0 mph 58% 0.00 in
18:19 35.8 °F 22.9 °F 30.23 in WSW 6.0 mph 12.0 mph 59% 0.00 in
18:24 35.7 °F 22.8 °F 30.23 in WSW 7.0 mph 13.0 mph 59% 0.00 in
18:29 35.6 °F 22.7 °F 30.23 in West 7.0 mph 16.0 mph 59% 0.00 in
18:34 35.3 °F 22.4 °F 30.23 in WSW 8.0 mph 16.0 mph 59% 0.00 in
18:39 35.2 °F 22.7 °F 30.23 in WSW 1.0 mph 15.0 mph 60% 0.00 in
18:44 34.7 °F 22.6 °F 30.23 in WSW 5.0 mph 13.0 mph 61% 0.00 in
18:49 34.6 °F 22.5 °F 30.23 in WSW 2.0 mph 13.0 mph 61% 0.00 in
18:54 34.4 °F 22.7 °F 30.23 in WSW 4.0 mph 8.0 mph 62% 0.00 in
18:59 34.1 °F 22.4 °F 30.23 in WSW 3.0 mph 13.0 mph 62% 0.00 in
19:04 33.7 °F 22.4 °F 30.23 in WSW 3.0 mph 13.0 mph 63% 0.00 in
19:09 33.6 °F 22.4 °F 30.23 in SW 4.0 mph 8.0 mph 63% 0.00 in
19:14 33.7 °F 22.1 °F 30.23 in SW 4.0 mph 9.0 mph 62% 0.00 in
19:19 33.8 °F 22.2 °F 30.23 in SW 1.0 mph 10.0 mph 62% 0.00 in
19:24 33.7 °F 22.1 °F 30.23 in WSW 1.0 mph 10.0 mph 62% 0.00 in
19:29 33.4 °F 21.8 °F 30.23 in SW 2.0 mph 10.0 mph 62% 0.00 in
19:34 33.0 °F 21.8 °F 30.23 in SSW 1.0 mph 5.0 mph 63% 0.00 in
19:39 33.0 °F 21.8 °F 30.23 in SW 2.0 mph 6.0 mph 63% 0.00 in
19:44 33.0 °F 21.8 °F 30.23 in SW 2.0 mph 6.0 mph 63% 0.00 in
19:49 32.9 °F 22.1 °F 30.23 in SW 3.0 mph 8.0 mph 64% 0.00 in
19:54 33.0 °F 22.2 °F 30.23 in SSW 7.0 mph 11.0 mph 64% 0.00 in
19:59 33.3 °F 22.4 °F 30.23 in SSW 5.0 mph 11.0 mph 64% 0.00 in
20:04 33.1 °F 22.6 °F 30.23 in SSW 4.0 mph 10.0 mph 65% 0.00 in
20:09 32.9 °F 22.4 °F 30.23 in SW 5.0 mph 10.0 mph 65% 0.00 in
20:14 32.7 °F 22.2 °F 30.23 in SW 4.0 mph 10.0 mph 65% 0.00 in
20:19 32.5 °F 22.4 °F 30.23 in SSW 5.0 mph 9.0 mph 66% 0.00 in
20:24 32.5 °F 22.4 °F 30.23 in SSW 6.0 mph 11.0 mph 66% 0.00 in
20:29 32.4 °F 22.3 °F 30.23 in SSW 4.0 mph 12.0 mph 66% 0.00 in
20:34 32.1 °F 22.0 °F 30.23 in SSW 3.0 mph 12.0 mph 66% 0.00 in
20:39 32.0 °F 22.3 °F 30.23 in SSW 6.0 mph 12.0 mph 67% 0.00 in
20:44 31.8 °F 22.1 °F 30.23 in SSW 4.0 mph 11.0 mph 67% 0.00 in
20:49 31.7 °F 22.0 °F 30.23 in SSW 6.0 mph 11.0 mph 67% 0.00 in
20:54 31.7 °F 22.0 °F 30.23 in SW 6.0 mph 11.0 mph 67% 0.00 in
20:59 31.7 °F 21.6 °F 30.23 in SSW 5.0 mph 11.0 mph 66% 0.00 in
21:04 31.7 °F 21.6 °F 30.23 in SSW 4.0 mph 12.0 mph 66% 0.00 in
21:09 31.7 °F 21.6 °F 30.23 in SSW 5.0 mph 12.0 mph 66% 0.00 in
21:14 31.7 °F 21.6 °F 30.23 in SW 7.0 mph 11.0 mph 66% 0.00 in
21:19 32.0 °F 21.6 °F 30.23 in SW 7.0 mph 12.0 mph 65% 0.00 in
21:24 32.1 °F 21.3 °F 30.23 in SSW 7.0 mph 12.0 mph 64% 0.00 in
21:29 32.0 °F 21.2 °F 30.23 in SSW 4.0 mph 11.0 mph 64% 0.00 in
21:34 32.0 °F 21.2 °F 30.23 in SSW 5.0 mph 10.0 mph 64% 0.00 in
21:39 31.9 °F 21.1 °F 30.23 in SSW 3.0 mph 10.0 mph 64% 0.00 in
21:44 31.9 °F 21.1 °F 30.22 in SW 4.0 mph 9.0 mph 64% 0.00 in
21:49 32.1 °F 21.3 °F 30.22 in SSW 5.0 mph 11.0 mph 64% 0.00 in
21:54 32.1 °F 20.9 °F 30.22 in SSW 5.0 mph 11.0 mph 63% 0.00 in
21:59 32.2 °F 21.0 °F 30.22 in SW 5.0 mph 11.0 mph 63% 0.00 in
22:04 32.3 °F 21.1 °F 30.21 in SSW 6.0 mph 11.0 mph 63% 0.00 in
22:09 32.5 °F 20.9 °F 30.21 in SSW 7.0 mph 14.0 mph 62% 0.00 in
22:14 32.7 °F 21.1 °F 30.21 in SSW 5.0 mph 16.0 mph 62% 0.00 in
22:19 32.9 °F 20.9 °F 30.21 in SSW 7.0 mph 16.0 mph 61% 0.00 in
22:24 33.1 °F 20.7 °F 30.21 in SSW 5.0 mph 15.0 mph 60% 0.00 in
22:29 33.2 °F 20.8 °F 30.20 in SSW 6.0 mph 12.0 mph 60% 0.00 in
22:39 33.4 °F 21.0 °F 30.20 in SSW 6.0 mph 15.0 mph 60% 0.00 in
22:44 33.5 °F 21.1 °F 30.20 in SW 6.0 mph 15.0 mph 60% 0.00 in
22:49 33.7 °F 20.9 °F 30.20 in SW 6.0 mph 18.0 mph 59% 0.00 in
22:54 33.7 °F 20.9 °F 30.20 in SSW 6.0 mph 18.0 mph 59% 0.00 in
22:59 33.8 °F 21.0 °F 30.20 in SSW 7.0 mph 17.0 mph 59% 0.00 in
23:04 33.8 °F 21.0 °F 30.20 in SSW 7.0 mph 17.0 mph 59% 0.00 in
23:09 33.8 °F 21.0 °F 30.20 in SSW 5.0 mph 13.0 mph 59% 0.00 in
23:14 33.9 °F 21.1 °F 30.20 in SSW 5.0 mph 13.0 mph 59% 0.00 in
23:19 33.9 °F 21.1 °F 30.20 in SSW 7.0 mph 13.0 mph 59% 0.00 in
23:24 34.1 °F 20.9 °F 30.20 in SSW 8.0 mph 15.0 mph 58% 0.00 in
23:29 34.1 °F 21.3 °F 30.19 in SSW 3.0 mph 15.0 mph 59% 0.00 in
23:34 34.2 °F 21.0 °F 30.19 in SSW 6.0 mph 14.0 mph 58% 0.00 in
23:39 34.4 °F 21.2 °F 30.19 in SSW 10.0 mph 15.0 mph 58% 0.00 in
23:44 34.5 °F 20.8 °F 30.19 in SSW 9.0 mph 15.0 mph 57% 0.00 in
23:49 34.6 °F 21.3 °F 30.19 in SSW 6.0 mph 17.0 mph 58% 0.00 in
23:54 34.6 °F 21.3 °F 30.19 in SSW 7.0 mph 17.0 mph 58% 0.00 in
23:59 34.7 °F 21.0 °F 30.19 in SSW 9.0 mph 18.0 mph 57% 0.00 in
Westford Weather
Compliments of Weather Underground

 
 
Current Radar Loop:

Copyright © WestfordWeather.net 2007-2014. All rights reserved.